Terminal Aerodrome Forecast
Issued by NWS New Orleans/Baton Rouge, LA

Home | Current Version | Previous Version | Text Only | Print | Product List | Glossary On
Versions: 1 2 3 4 5 6 7 8 9 10 11 12 13 14 15 16 17 18 19 20 21 22 23 24
000
FTUS44 KLIX 021722
TAFNEW
TAF
KNEW 021722Z 0218/0318 12006KT P6SM VCTS SCT030CB BKN120
     FM030000 VRB04KT P6SM BKN200
     FM031600 09006KT P6SM BKN200=

USA.gov is the U.S. government's official web portal to all federal, state and local government web resources and services.